Weather History for Trenton, NJ

Change the Weather History Date:

Friday, January 31, 2014

  Actual Average Record
Temperature  
Mean Temperature 30 °F 32 °F  
Max Temperature 42 °F 40 °F 64 °F (1947)
Min Temperature 17 °F 24 °F -1 °F (1920)
Degree Days  
Heating Degree Days 35 33  
Month to date heating degree days 1198 1050  
Since 1 July heating degree days 3085 2946  
Cooling Degree Days 0 0  
Month to date cooling degree days 0 0  
Year to date cooling degree days 0 0  
Moisture  
Dew Point 14 °F    
Average Humidity 52    
Maximum Humidity 74    
Minimum Humidity 29    
Precipitation  
Precipitation 0.00 in 0.10 in 0.85 in (2013)
Month to date precipitation 3.27 3.16  
Year to date precipitation 3.27 3.16  
Sea Level Pressure  
Sea Level Pressure 30.16 in    
Wind  
Wind Speed 5 mph (WNW)    
Max Wind Speed 15 mph    
Max Gust Speed 20 mph    
Visibility 10 miles    
Events      
T = Trace of Precipitation, MM = Missing Value Source: NWS Daily Summary

Daily Weather History Graph

Daily Weather History Graph

Search for Another Location

Airport:

Trip Planner

Search our weather history database for the weather conditions in past years. The results will help you decide how hot, cold, wet, or windy it might be!

Date:

Astronomy

Jan. 31, 2014 Rise Set
Actual Time 7:09 AM EST 5:16 PM EST
Civil Twilight 6:40 AM EST 5:45 PM EST
Nautical Twilight 6:07 AM EST 6:18 PM EST
Astronomical Twilight 5:35 AM EST 6:50 PM EST
Moon 7:17 AM EST (1/31) 6:38 PM EST (1/31)
Length of Visible Light 11h 05m
Length of Day
10h 07m
New Moon, 1% of the Moon is Illuminated
Jan 31
New Moon
Feb 6
First Quarter
Feb 14
Full
Feb 22
Last Quarter
Mar 1
New

Hourly Weather History & Observations

Time (EST) Temp. Windchill Dew Point Humidity Pressure Visibility Wind Dir Wind Speed Gust Speed Precip Events Conditions
12:53 AM 19.0 °F - 7.0 °F 59% 30.18 in 10.0 mi Calm Calm - N/A   Clear
1:53 AM 19.0 °F 12.3 °F 9.0 °F 65% 30.14 in 10.0 mi South 4.6 mph - N/A   Clear
2:53 AM 18.0 °F - 9.0 °F 68% 30.14 in 10.0 mi North - - N/A   Clear
3:53 AM 18.0 °F - 10.0 °F 71% 30.14 in 10.0 mi North - - N/A   Clear
4:53 AM 19.0 °F - 10.0 °F 68% 30.13 in 10.0 mi North - - N/A   Clear
5:53 AM 19.9 °F - 12.0 °F 71% 30.11 in 10.0 mi Calm Calm - N/A   Clear
6:53 AM 21.0 °F 16.2 °F 12.9 °F 71% 30.13 in 10.0 mi Variable 3.5 mph - N/A   Scattered Clouds
7:53 AM 21.0 °F 16.2 °F 12.9 °F 71% 30.15 in 9.0 mi West 3.5 mph - N/A   Mostly Cloudy
8:53 AM 25.0 °F 15.5 °F 15.1 °F 66% 30.16 in 9.0 mi NW 9.2 mph - N/A   Overcast
9:53 AM 27.0 °F 16.7 °F 15.1 °F 61% 30.17 in 10.0 mi NW 11.5 mph 18.4 mph N/A   Overcast
10:53 AM 34.0 °F - 17.1 °F 50% 30.14 in 10.0 mi North - - N/A   Overcast
11:53 AM 35.1 °F 28.6 °F 16.0 °F 46% 30.14 in 10.0 mi West 8.1 mph - N/A   Scattered Clouds
12:53 PM 37.0 °F 32.4 °F 12.9 °F 37% 30.12 in 10.0 mi West 5.8 mph - N/A   Clear
1:53 PM 39.9 °F 33.9 °F 14.0 °F 35% 30.12 in 10.0 mi NW 9.2 mph - N/A   Clear
2:53 PM 41.0 °F 34.3 °F 12.9 °F 32% 30.12 in 10.0 mi NW 11.5 mph 18.4 mph N/A   Clear
3:53 PM 42.1 °F 40.2 °F 12.9 °F 31% 30.10 in 10.0 mi Variable 3.5 mph - N/A   Clear
4:53 PM 39.9 °F 35.8 °F 12.9 °F 33% 30.13 in 10.0 mi NW 5.8 mph - N/A   Clear
5:53 PM 37.9 °F 32.7 °F 14.0 °F 38% 30.16 in 10.0 mi NW 6.9 mph - N/A   Mostly Cloudy
6:53 PM 37.0 °F 32.4 °F 15.1 °F 41% 30.19 in 10.0 mi NW 5.8 mph - N/A   Partly Cloudy
7:53 PM 36.0 °F - 15.1 °F 43% 30.19 in 10.0 mi Calm Calm - N/A   Clear
8:53 PM 33.1 °F - 16.0 °F 50% 30.20 in 10.0 mi Calm Calm - N/A   Partly Cloudy
9:53 PM 30.9 °F 27.5 °F 17.1 °F 57% 30.22 in 10.0 mi North 3.5 mph - N/A   Clear
10:53 PM 30.9 °F 27.5 °F 19.0 °F 61% 30.22 in 10.0 mi Variable 3.5 mph - N/A   Mostly Cloudy
11:53 PM 32.0 °F - 19.9 °F 61% 30.22 in 10.0 mi Calm Calm - N/A   Mostly Cloudy